Time,TemperatureF,DewpointF,PressureIn,WindDirection,WindDirectionDegrees,WindSpeedMPH,WindSpeedGustMPH,Humidity,HourlyPrecipIn,Conditions,Clouds,dailyrainin,SoftwareType,DateUTC
2013-02-12 00:04:00,36.3,29.8,30.17,North,7,0.0,0.0,77,0.00,,---,0.00,VWS V14.01,2013-02-12 08:04:00,
2013-02-12 00:09:00,36.2,29.7,30.17,North,7,0.0,0.0,77,0.00,,---,0.00,VWS V14.01,2013-02-12 08:09:00,
2013-02-12 00:14:00,36.0,29.5,30.17,North,7,0.0,0.0,77,0.00,,---,0.00,VWS V14.01,2013-02-12 08:14:00,
2013-02-12 00:19:00,35.9,29.4,30.17,North,7,0.0,0.0,77,0.00,,---,0.00,VWS V14.01,2013-02-12 08:19:00,
2013-02-12 00:24:00,35.8,29.6,30.17,North,7,0.0,0.0,78,0.00,,---,0.00,VWS V14.01,2013-02-12 08:24:00,
2013-02-12 00:29:00,35.6,29.4,30.17,North,7,0.0,0.0,78,0.00,,---,0.00,VWS V14.01,2013-02-12 08:29:00,
2013-02-12 00:39:00,35.5,29.6,30.17,North,7,0.0,0.0,79,0.00,,---,0.00,VWS V14.01,2013-02-12 08:39:00,
2013-02-12 00:49:00,35.3,29.5,30.17,North,7,0.0,0.0,79,0.00,,---,0.00,VWS V14.01,2013-02-12 08:49:00,
2013-02-12 00:54:00,35.2,29.4,30.17,North,7,0.0,0.0,79,0.00,,---,0.00,VWS V14.01,2013-02-12 08:54:00,
2013-02-12 01:10:00,34.9,29.4,30.18,North,7,0.0,0.0,80,0.00,,---,0.00,VWS V14.01,2013-02-12 09:10:00,
2013-02-12 01:19:00,34.6,29.1,30.18,North,7,0.0,0.0,80,0.00,,---,0.00,VWS V14.01,2013-02-12 09:19:00,
2013-02-12 01:24:00,34.4,29.2,30.18,North,7,0.0,0.0,81,0.00,,---,0.00,VWS V14.01,2013-02-12 09:24:00,
2013-02-12 01:34:00,34.1,28.9,30.18,North,7,0.0,0.0,81,0.00,,---,0.00,VWS V14.01,2013-02-12 09:34:00,
2013-02-12 01:39:00,34.0,28.8,30.18,North,7,0.0,0.0,81,0.00,,---,0.00,VWS V14.01,2013-02-12 09:39:00,
2013-02-12 01:49:00,33.7,28.5,30.18,North,7,0.0,0.0,81,0.00,,---,0.00,VWS V14.01,2013-02-12 09:49:00,
2013-02-12 01:54:00,33.5,28.3,30.18,North,7,0.0,0.0,81,0.00,,---,0.00,VWS V14.01,2013-02-12 09:54:00,
2013-02-12 02:04:00,33.2,28.3,30.18,North,7,0.0,0.0,82,0.00,,---,0.00,VWS V14.01,2013-02-12 10:04:00,
2013-02-12 02:09:00,33.2,28.3,30.18,North,7,0.0,0.0,82,0.00,,---,0.00,VWS V14.01,2013-02-12 10:09:00,
2013-02-12 02:14:00,33.1,28.2,30.18,North,7,0.0,0.0,82,0.00,,---,0.00,VWS V14.01,2013-02-12 10:14:00,
2013-02-12 02:24:00,32.9,28.0,30.18,North,7,0.0,0.0,82,0.00,,---,0.00,VWS V14.01,2013-02-12 10:24:00,
2013-02-12 02:30:00,32.9,28.3,30.18,North,7,0.0,0.0,83,0.00,,---,0.00,VWS V14.01,2013-02-12 10:30:00,
2013-02-12 02:39:00,33.1,28.5,30.18,North,7,0.0,0.0,83,0.00,,---,0.00,VWS V14.01,2013-02-12 10:39:00,
2013-02-12 02:44:00,33.1,28.5,30.18,North,7,0.0,0.0,83,0.00,,---,0.00,VWS V14.01,2013-02-12 10:44:00,
2013-02-12 02:50:00,33.1,28.5,30.18,North,7,0.0,0.0,83,0.00,,---,0.00,VWS V14.01,2013-02-12 10:50:00,
2013-02-12 02:59:00,32.9,28.3,30.18,North,7,0.0,0.0,83,0.00,,---,0.00,VWS V14.01,2013-02-12 10:59:00,
2013-02-12 03:04:00,32.9,28.3,30.18,North,7,0.0,0.0,83,0.00,,---,0.00,VWS V14.01,2013-02-12 11:04:00,
2013-02-12 03:09:00,32.8,28.2,30.18,North,7,0.0,0.0,83,0.00,,---,0.00,VWS V14.01,2013-02-12 11:09:00,
2013-02-12 03:14:00,32.7,28.1,30.18,North,7,0.0,0.0,83,0.00,,---,0.00,VWS V14.01,2013-02-12 11:14:00,
2013-02-12 03:20:00,32.5,27.9,30.18,North,7,0.0,0.0,83,0.00,,---,0.00,VWS V14.01,2013-02-12 11:20:00,
2013-02-12 03:29:00,32.2,27.9,30.18,North,7,0.0,0.0,84,0.00,,---,0.00,VWS V14.01,2013-02-12 11:29:00,
2013-02-12 03:34:00,32.1,27.8,30.18,North,7,0.0,0.0,84,0.00,,---,0.00,VWS V14.01,2013-02-12 11:34:00,
2013-02-12 03:39:00,31.9,27.6,30.18,North,7,0.0,0.0,84,0.00,,---,0.00,VWS V14.01,2013-02-12 11:39:00,
2013-02-12 03:44:00,31.8,27.5,30.18,North,7,0.0,0.0,84,0.00,,---,0.00,VWS V14.01,2013-02-12 11:44:00,
2013-02-12 03:55:00,31.6,27.3,30.18,North,7,0.0,0.0,84,0.00,,---,0.00,VWS V14.01,2013-02-12 11:55:00,
2013-02-12 04:00:00,31.6,27.3,30.19,North,7,0.0,0.0,84,0.00,,---,0.00,VWS V14.01,2013-02-12 12:00:00,
2013-02-12 04:05:00,31.5,27.2,30.19,North,7,0.0,0.0,84,0.00,,---,0.00,VWS V14.01,2013-02-12 12:05:00,
2013-02-12 04:15:00,31.5,27.2,30.19,North,7,0.0,0.0,84,0.00,,---,0.00,VWS V14.01,2013-02-12 12:15:00,
2013-02-12 04:20:00,31.5,27.2,30.19,North,7,0.0,0.0,84,0.00,,---,0.00,VWS V14.01,2013-02-12 12:20:00,
2013-02-12 04:30:00,31.5,27.5,30.19,North,7,0.0,0.0,85,0.00,,---,0.00,VWS V14.01,2013-02-12 12:30:00,
2013-02-12 04:39:00,31.3,27.3,30.19,North,7,0.0,0.0,85,0.00,,---,0.00,VWS V14.01,2013-02-12 12:39:00,
2013-02-12 04:44:00,31.2,27.2,30.20,North,7,0.0,0.0,85,0.00,,---,0.00,VWS V14.01,2013-02-12 12:44:00,
2013-02-12 04:49:00,31.2,27.2,30.20,North,7,0.0,0.0,85,0.00,,---,0.00,VWS V14.01,2013-02-12 12:49:00,
2013-02-12 04:55:00,31.0,27.0,30.20,North,7,0.0,0.0,85,0.00,,---,0.00,VWS V14.01,2013-02-12 12:55:00,
2013-02-12 05:04:00,31.0,27.0,30.20,North,7,0.0,0.0,85,0.00,,---,0.00,VWS V14.01,2013-02-12 13:04:00,
2013-02-12 05:09:00,31.0,27.0,30.20,North,7,0.0,0.0,85,0.00,,---,0.00,VWS V14.01,2013-02-12 13:09:00,
2013-02-12 05:14:00,30.9,26.9,30.21,North,7,0.0,0.0,85,0.00,,---,0.00,VWS V14.01,2013-02-12 13:14:00,
2013-02-12 05:20:00,30.9,27.2,30.21,North,7,0.0,0.0,86,0.00,,---,0.00,VWS V14.01,2013-02-12 13:20:00,
2013-02-12 05:30:00,30.9,27.2,30.21,North,7,0.0,0.0,86,0.00,,---,0.00,VWS V14.01,2013-02-12 13:30:00,
2013-02-12 05:39:00,30.7,27.0,30.21,North,7,0.0,0.0,86,0.00,,---,0.00,VWS V14.01,2013-02-12 13:39:00,
2013-02-12 05:44:00,30.7,27.0,30.22,North,7,0.0,0.0,86,0.00,,---,0.00,VWS V14.01,2013-02-12 13:44:00,
2013-02-12 05:49:00,30.7,27.0,30.22,North,7,0.0,0.0,86,0.00,,---,0.00,VWS V14.01,2013-02-12 13:49:00,
2013-02-12 05:55:00,30.6,26.9,30.22,North,7,0.0,0.0,86,0.00,,---,0.00,VWS V14.01,2013-02-12 13:55:00,
2013-02-12 06:04:00,30.6,26.9,30.22,North,7,0.0,0.0,86,0.00,,---,0.00,VWS V14.01,2013-02-12 14:04:00,
2013-02-12 06:14:00,30.6,26.9,30.23,North,7,0.0,0.0,86,0.00,,---,0.00,VWS V14.01,2013-02-12 14:14:00,
2013-02-12 06:19:00,30.4,26.7,30.23,North,7,0.0,0.0,86,0.00,,---,0.00,VWS V14.01,2013-02-12 14:19:00,
2013-02-12 06:25:00,30.4,26.7,30.23,North,7,0.0,0.0,86,0.00,,---,0.00,VWS V14.01,2013-02-12 14:25:00,
2013-02-12 06:34:00,30.4,26.7,30.23,North,7,0.0,0.0,86,0.00,,---,0.00,VWS V14.01,2013-02-12 14:34:00,
2013-02-12 06:44:00,30.3,26.6,30.24,North,7,0.0,0.0,86,0.00,,---,0.00,VWS V14.01,2013-02-12 14:44:00,
2013-02-12 06:49:00,30.3,26.6,30.24,North,7,0.0,0.0,86,0.00,,---,0.00,VWS V14.01,2013-02-12 14:49:00,
2013-02-12 07:00:00,30.4,26.7,30.25,North,7,0.0,0.0,86,0.00,,---,0.00,VWS V14.01,2013-02-12 15:00:00,
2013-02-12 07:10:00,30.6,26.9,30.25,North,6,0.0,0.0,86,0.00,,---,0.00,VWS V14.01,2013-02-12 15:10:00,
2013-02-12 07:15:00,30.6,26.9,30.25,North,6,0.0,0.0,86,0.00,,---,0.00,VWS V14.01,2013-02-12 15:15:00,
2013-02-12 07:20:00,30.6,26.9,30.25,North,6,0.0,0.0,86,0.00,,---,0.00,VWS V14.01,2013-02-12 15:20:00,
2013-02-12 07:25:00,30.7,27.0,30.25,North,6,0.0,0.0,86,0.00,,---,0.00,VWS V14.01,2013-02-12 15:25:00,
2013-02-12 07:34:00,31.2,27.5,30.26,North,6,0.0,0.0,86,0.00,,---,0.00,VWS V14.01,2013-02-12 15:34:00,
2013-02-12 07:44:00,34.9,30.0,30.26,North,6,0.0,0.0,82,0.00,,---,0.00,VWS V14.01,2013-02-12 15:44:00,
2013-02-12 07:49:00,36.2,29.4,30.26,NNE,24,0.0,0.0,76,0.00,,---,0.00,VWS V14.01,2013-02-12 15:49:00,
2013-02-12 07:59:00,37.9,28.3,30.27,NNE,24,0.0,0.0,68,0.00,,---,0.00,VWS V14.01,2013-02-12 15:59:00,
2013-02-12 08:04:00,38.5,27.8,30.27,NNE,24,0.0,0.0,65,0.00,,---,0.00,VWS V14.01,2013-02-12 16:04:00,
2013-02-12 08:09:00,38.9,27.8,30.27,NNE,24,0.0,0.0,64,0.00,,---,0.00,VWS V14.01,2013-02-12 16:09:00,
2013-02-12 08:14:00,39.9,28.3,30.27,NNE,24,0.0,0.0,63,0.00,,---,0.00,VWS V14.01,2013-02-12 16:14:00,
2013-02-12 08:19:00,40.5,28.1,30.27,NNE,24,0.0,0.0,61,0.00,,---,0.00,VWS V14.01,2013-02-12 16:19:00,
2013-02-12 08:24:00,40.8,28.0,30.27,NNE,24,0.0,0.0,60,0.00,,---,0.00,VWS V14.01,2013-02-12 16:24:00,
2013-02-12 08:29:00,41.3,27.6,30.27,NNE,24,0.0,0.0,58,0.00,,---,0.00,VWS V14.01,2013-02-12 16:29:00,
2013-02-12 08:39:00,43.2,28.6,30.27,ENE,78,0.0,0.0,56,0.00,,---,0.00,VWS V14.01,2013-02-12 16:39:00,
2013-02-12 08:45:00,43.6,28.1,30.27,East,79,0.0,0.0,54,0.00,,---,0.00,VWS V14.01,2013-02-12 16:45:00,
2013-02-12 08:54:00,45.4,28.4,30.27,East,79,0.0,0.0,51,0.00,,---,0.00,VWS V14.01,2013-02-12 16:54:00,
2013-02-12 09:00:00,45.8,29.2,30.27,East,79,0.0,0.0,52,0.00,,---,0.00,VWS V14.01,2013-02-12 17:00:00,
2013-02-12 09:05:00,46.5,27.9,30.27,East,80,0.0,0.0,48,0.00,,---,0.00,VWS V14.01,2013-02-12 17:05:00,
2013-02-12 09:10:00,47.4,28.7,30.27,ESE,109,0.0,0.0,48,0.00,,---,0.00,VWS V14.01,2013-02-12 17:10:00,
2013-02-12 09:19:00,48.9,29.0,30.27,ESE,109,0.0,0.0,46,0.00,,---,0.00,VWS V14.01,2013-02-12 17:19:00,
2013-02-12 09:25:00,49.4,31.6,30.27,ESE,110,0.0,0.0,50,0.00,,---,0.00,VWS V14.01,2013-02-12 17:25:00,
2013-02-12 09:30:00,50.2,29.1,30.27,ESE,110,0.0,0.0,44,0.00,,---,0.00,VWS V14.01,2013-02-12 17:30:00,
2013-02-12 09:39:00,51.6,28.7,30.27,ESE,110,0.0,0.0,41,0.00,,---,0.00,VWS V14.01,2013-02-12 17:39:00,
2013-02-12 09:44:00,52.5,28.9,30.27,ESE,110,0.0,0.0,40,0.00,,---,0.00,VWS V14.01,2013-02-12 17:44:00,
2013-02-12 09:55:00,53.8,29.4,30.27,SE,133,0.0,0.0,39,0.00,,---,0.00,VWS V14.01,2013-02-12 17:55:00,
2013-02-12 10:04:00,54.8,28.4,30.26,SE,133,0.0,0.0,36,0.00,,---,0.00,VWS V14.01,2013-02-12 18:04:00,
2013-02-12 10:14:00,56.2,30.3,30.26,SE,127,0.0,0.0,37,0.00,,---,0.00,VWS V14.01,2013-02-12 18:14:00,
2013-02-12 10:20:00,56.5,27.8,30.26,ESE,121,0.0,0.0,33,0.00,,---,0.00,VWS V14.01,2013-02-12 18:20:00,
2013-02-12 10:25:00,57.3,29.9,30.26,ESE,121,0.0,0.0,35,0.00,,---,0.00,VWS V14.01,2013-02-12 18:25:00,
2013-02-12 10:35:00,58.1,29.2,30.26,SE,138,0.0,0.0,33,0.00,,---,0.00,VWS V14.01,2013-02-12 18:35:00,
2013-02-12 10:44:00,59.5,26.4,30.26,SSE,162,0.0,1.0,28,0.00,,---,0.00,VWS V14.01,2013-02-12 18:44:00,
2013-02-12 10:50:00,59.8,28.3,30.26,SSE,162,0.0,0.0,30,0.00,,---,0.00,VWS V14.01,2013-02-12 18:50:00,
2013-02-12 11:00:00,60.4,26.3,30.25,SE,134,0.0,0.0,27,0.00,,---,0.00,VWS V14.01,2013-02-12 19:00:00,
2013-02-12 11:05:00,61.0,28.5,30.25,SSE,162,0.0,0.0,29,0.00,,---,0.00,VWS V14.01,2013-02-12 19:05:00,
2013-02-12 11:10:00,61.2,28.7,30.25,West,270,0.0,0.0,29,0.00,,---,0.00,VWS V14.01,2013-02-12 19:10:00,
2013-02-12 11:15:00,62.0,27.7,30.24,West,268,0.0,0.0,27,0.00,,---,0.00,VWS V14.01,2013-02-12 19:15:00,
2013-02-12 11:20:00,62.6,27.3,30.24,North,11,0.0,0.0,26,0.00,,---,0.00,VWS V14.01,2013-02-12 19:20:00,
2013-02-12 11:29:00,64.0,27.5,30.23,SE,143,0.0,0.0,25,0.00,,---,0.00,VWS V14.01,2013-02-12 19:29:00,
2013-02-12 11:39:00,64.7,27.1,30.23,ENE,72,0.0,0.0,24,0.00,,---,0.00,VWS V14.01,2013-02-12 19:39:00,
2013-02-12 11:44:00,65.2,31.3,30.22,ESE,106,0.0,2.0,28,0.00,,---,0.00,VWS V14.01,2013-02-12 19:44:00,
2013-02-12 11:49:00,64.7,28.1,30.22,SSE,157,0.0,1.0,25,0.00,,---,0.00,VWS V14.01,2013-02-12 19:49:00,
2013-02-12 11:55:00,64.2,28.6,30.22,SSW,208,0.0,0.0,26,0.00,,---,0.00,VWS V14.01,2013-02-12 19:55:00,
2013-02-12 12:00:00,65.5,30.7,30.21,SSW,203,0.0,1.0,27,0.00,,---,0.00,VWS V14.01,2013-02-12 20:00:00,
2013-02-12 12:09:00,64.7,27.1,30.21,South,188,0.0,1.0,24,0.00,,---,0.00,VWS V14.01,2013-02-12 20:09:00,
2013-02-12 12:15:00,64.8,27.2,30.20,SSW,202,0.0,0.0,24,0.00,,---,0.00,VWS V14.01,2013-02-12 20:15:00,
2013-02-12 12:24:00,65.0,26.3,30.20,SSW,209,0.0,6.0,23,0.00,,---,0.00,VWS V14.01,2013-02-12 20:24:00,
2013-02-12 12:29:00,65.5,28.8,30.20,SW,216,0.0,1.0,25,0.00,,---,0.00,VWS V14.01,2013-02-12 20:29:00,
2013-02-12 12:34:00,65.6,27.9,30.20,SSW,208,0.0,1.0,24,0.00,,---,0.00,VWS V14.01,2013-02-12 20:34:00,
2013-02-12 12:39:00,66.0,30.2,30.20,SW,217,1.0,1.0,26,0.00,,---,0.00,VWS V14.01,2013-02-12 20:39:00,
2013-02-12 12:44:00,66.6,30.7,30.19,West,260,1.0,4.0,26,0.00,,---,0.00,VWS V14.01,2013-02-12 20:44:00,
2013-02-12 12:49:00,66.0,30.2,30.19,WSW,237,0.0,3.0,26,0.00,,---,0.00,VWS V14.01,2013-02-12 20:49:00,
2013-02-12 12:54:00,66.0,30.2,30.19,WSW,250,2.0,2.0,26,0.00,,---,0.00,VWS V14.01,2013-02-12 20:54:00,
2013-02-12 13:00:00,66.0,33.7,30.18,West,280,0.0,7.0,30,0.00,,---,0.00,VWS V14.01,2013-02-12 21:00:00,
2013-02-12 13:09:00,65.5,32.4,30.18,SSW,195,0.0,2.0,29,0.00,,---,0.00,VWS V14.01,2013-02-12 21:09:00,
2013-02-12 13:14:00,65.8,32.7,30.17,SW,232,0.0,3.0,29,0.00,,---,0.00,VWS V14.01,2013-02-12 21:14:00,
2013-02-12 13:19:00,66.4,34.9,30.17,South,188,8.0,8.0,31,0.00,,---,0.00,VWS V14.01,2013-02-12 21:19:00,
2013-02-12 13:29:00,65.6,32.5,30.17,WSW,257,1.0,9.0,29,0.00,,---,0.00,VWS V14.01,2013-02-12 21:29:00,
2013-02-12 13:34:00,65.8,34.3,30.17,South,171,11.0,11.0,31,0.00,,---,0.00,VWS V14.01,2013-02-12 21:34:00,
2013-02-12 13:39:00,66.1,36.2,30.17,SSW,192,0.0,11.0,33,0.00,,---,0.00,VWS V14.01,2013-02-12 21:39:00,
2013-02-12 13:45:00,66.1,35.4,30.17,SW,215,5.0,11.0,32,0.00,,---,0.00,VWS V14.01,2013-02-12 21:45:00,
2013-02-12 13:50:00,65.2,35.4,30.17,West,263,1.0,9.0,33,0.00,,---,0.00,VWS V14.01,2013-02-12 21:50:00,
2013-02-12 13:59:00,65.5,36.4,30.16,WSW,239,6.0,10.0,34,0.00,,---,0.00,VWS V14.01,2013-02-12 21:59:00,
2013-02-12 14:05:00,65.2,35.4,30.16,WSW,248,3.0,12.0,33,0.00,,---,0.00,VWS V14.01,2013-02-12 22:05:00,
2013-02-12 14:10:00,65.2,36.9,30.16,WSW,253,3.0,12.0,35,0.00,,---,0.00,VWS V14.01,2013-02-12 22:10:00,
2013-02-12 14:15:00,65.0,36.0,30.16,SW,219,7.0,8.0,34,0.00,,---,0.00,VWS V14.01,2013-02-12 22:15:00,
2013-02-12 14:20:00,65.2,36.9,30.16,WSW,237,2.0,8.0,35,0.00,,---,0.00,VWS V14.01,2013-02-12 22:20:00,
2013-02-12 14:29:00,65.2,37.6,30.16,SW,219,0.0,10.0,36,0.00,,---,0.00,VWS V14.01,2013-02-12 22:29:00,
2013-02-12 14:35:00,65.0,36.0,30.16,WSW,247,7.0,8.0,34,0.00,,---,0.00,VWS V14.01,2013-02-12 22:35:00,
2013-02-12 14:45:00,64.8,36.5,30.16,SW,220,6.0,11.0,35,0.00,,---,0.00,VWS V14.01,2013-02-12 22:45:00,
2013-02-12 14:54:00,63.9,36.5,30.16,SW,233,3.0,8.0,36,0.00,,---,0.00,VWS V14.01,2013-02-12 22:54:00,
2013-02-12 14:59:00,63.7,35.6,30.16,WSW,240,7.0,9.0,35,0.00,,---,0.00,VWS V14.01,2013-02-12 22:59:00,
2013-02-12 15:04:00,63.9,37.1,30.16,WSW,240,0.0,9.0,37,0.00,,---,0.00,VWS V14.01,2013-02-12 23:04:00,
2013-02-12 15:10:00,64.5,38.3,30.16,SW,226,5.0,8.0,38,0.00,,---,0.00,VWS V14.01,2013-02-12 23:10:00,
2013-02-12 15:20:00,64.2,38.8,30.16,WSW,254,3.0,12.0,39,0.00,,---,0.00,VWS V14.01,2013-02-12 23:20:00,
2013-02-12 15:29:00,63.4,38.0,30.15,West,270,2.0,11.0,39,0.00,,---,0.00,VWS V14.01,2013-02-12 23:29:00,
2013-02-12 15:34:00,62.9,38.2,30.15,West,270,5.0,12.0,40,0.00,,---,0.00,VWS V14.01,2013-02-12 23:34:00,
2013-02-12 15:44:00,62.6,38.0,30.15,WSW,246,0.0,10.0,40,0.00,,---,0.00,VWS V14.01,2013-02-12 23:44:00,
2013-02-12 15:49:00,63.1,39.0,30.15,WSW,237,6.0,6.0,41,0.00,,---,0.00,VWS V14.01,2013-02-12 23:49:00,
2013-02-12 15:54:00,62.7,38.7,30.15,WSW,241,1.0,9.0,41,0.00,,---,0.00,VWS V14.01,2013-02-12 23:54:00,
2013-02-12 16:00:00,62.6,38.0,30.15,SSW,212,6.0,7.0,40,0.00,,---,0.00,VWS V14.01,2013-02-13 00:00:00,
2013-02-12 16:09:00,62.4,38.4,30.15,SSW,212,3.0,11.0,41,0.00,,---,0.00,VWS V14.01,2013-02-13 00:09:00,
2013-02-12 16:14:00,62.1,38.1,30.15,WSW,258,2.0,7.0,41,0.00,,---,0.00,VWS V14.01,2013-02-13 00:14:00,
2013-02-12 16:20:00,61.6,37.7,30.15,SW,234,0.0,8.0,41,0.00,,---,0.00,VWS V14.01,2013-02-13 00:20:00,
2013-02-12 16:30:00,61.0,37.2,30.15,WSW,246,0.0,6.0,41,0.00,,---,0.00,VWS V14.01,2013-02-13 00:30:00,
2013-02-12 16:39:00,60.7,36.9,30.15,SW,216,0.0,6.0,41,0.00,,---,0.00,VWS V14.01,2013-02-13 00:39:00,
2013-02-12 16:45:00,60.2,35.8,30.15,WSW,237,0.0,7.0,40,0.00,,---,0.00,VWS V14.01,2013-02-13 00:45:00,
2013-02-12 16:55:00,59.6,35.9,30.15,WSW,237,0.0,2.0,41,0.00,,---,0.00,VWS V14.01,2013-02-13 00:55:00,
2013-02-12 17:00:00,59.3,36.2,30.15,SW,226,0.0,0.0,42,0.00,,---,0.00,VWS V14.01,2013-02-13 01:00:00,
2013-02-12 17:05:00,58.9,36.5,30.15,SW,232,0.0,0.0,43,0.00,,---,0.00,VWS V14.01,2013-02-13 01:05:00,
2013-02-12 17:15:00,58.7,35.7,30.15,West,263,0.0,0.0,42,0.00,,---,0.00,VWS V14.01,2013-02-13 01:15:00,
2013-02-12 17:24:00,58.4,35.4,30.15,SSW,209,0.0,0.0,42,0.00,,---,0.00,VWS V14.01,2013-02-13 01:24:00,
2013-02-12 17:30:00,58.1,35.7,30.16,SSW,213,0.0,0.0,43,0.00,,---,0.00,VWS V14.01,2013-02-13 01:30:00,
2013-02-12 17:40:00,57.5,36.9,30.16,SW,230,0.0,0.0,46,0.00,,---,0.00,VWS V14.01,2013-02-13 01:40:00,
2013-02-12 17:50:00,56.6,37.2,30.16,SW,230,0.0,0.0,48,0.00,,---,0.00,VWS V14.01,2013-02-13 01:50:00,
2013-02-12 17:59:00,55.6,37.3,30.17,SW,230,0.0,0.0,50,0.00,,---,0.00,VWS V14.01,2013-02-13 01:59:00,
2013-02-12 18:04:00,54.8,37.0,30.17,SW,230,0.0,0.0,51,0.00,,---,0.00,VWS V14.01,2013-02-13 02:04:00,
2013-02-12 18:09:00,54.2,37.0,30.17,WSW,246,0.0,0.0,52,0.00,,---,0.00,VWS V14.01,2013-02-13 02:09:00,
2013-02-12 18:14:00,53.5,36.8,30.17,WSW,246,0.0,0.0,53,0.00,,---,0.00,VWS V14.01,2013-02-13 02:14:00,
2013-02-12 18:20:00,52.9,36.7,30.17,WSW,246,0.0,0.0,54,0.00,,---,0.00,VWS V14.01,2013-02-13 02:20:00,
2013-02-12 18:25:00,52.5,36.3,30.17,WSW,246,0.0,0.0,54,0.00,,---,0.00,VWS V14.01,2013-02-13 02:25:00,
2013-02-12 18:34:00,51.7,36.5,30.18,WSW,246,0.0,0.0,56,0.00,,---,0.00,VWS V14.01,2013-02-13 02:34:00,
2013-02-12 18:39:00,51.3,36.6,30.18,WSW,246,0.0,0.0,57,0.00,,---,0.00,VWS V14.01,2013-02-13 02:39:00,
2013-02-12 18:44:00,50.8,36.1,30.18,WSW,246,0.0,0.0,57,0.00,,---,0.00,VWS V14.01,2013-02-13 02:44:00,
2013-02-12 18:50:00,50.5,35.8,30.18,WSW,246,0.0,0.0,57,0.00,,---,0.00,VWS V14.01,2013-02-13 02:50:00,
2013-02-12 18:59:00,49.8,36.1,30.18,WSW,246,0.0,0.0,59,0.00,,---,0.00,VWS V14.01,2013-02-13 02:59:00,
2013-02-12 19:04:00,49.4,35.7,30.18,WSW,246,0.0,0.0,59,0.00,,---,0.00,VWS V14.01,2013-02-13 03:04:00,
2013-02-12 19:10:00,48.9,35.6,30.18,WSW,246,0.0,0.0,60,0.00,,---,0.00,VWS V14.01,2013-02-13 03:10:00,
2013-02-12 19:15:00,48.5,35.7,30.19,WSW,246,0.0,0.0,61,0.00,,---,0.00,VWS V14.01,2013-02-13 03:15:00,
2013-02-12 19:20:00,48.2,35.4,30.19,WSW,246,0.0,0.0,61,0.00,,---,0.00,VWS V14.01,2013-02-13 03:20:00,
2013-02-12 19:25:00,47.7,34.9,30.19,WSW,246,0.0,0.0,61,0.00,,---,0.00,VWS V14.01,2013-02-13 03:25:00,
2013-02-12 19:34:00,47.1,35.2,30.19,WSW,248,0.0,0.0,63,0.00,,---,0.00,VWS V14.01,2013-02-13 03:34:00,
2013-02-12 19:39:00,46.8,35.3,30.19,WSW,248,0.0,0.0,64,0.00,,---,0.00,VWS V14.01,2013-02-13 03:39:00,
2013-02-12 19:44:00,46.5,35.0,30.19,WSW,248,0.0,0.0,64,0.00,,---,0.00,VWS V14.01,2013-02-13 03:44:00,
2013-02-12 19:49:00,46.2,34.7,30.19,WSW,248,0.0,0.0,64,0.00,,---,0.00,VWS V14.01,2013-02-13 03:49:00,
2013-02-12 19:54:00,46.0,34.5,30.19,WSW,248,0.0,0.0,64,0.00,,---,0.00,VWS V14.01,2013-02-13 03:54:00,
2013-02-12 20:00:00,45.8,34.7,30.20,WSW,248,0.0,0.0,65,0.00,,---,0.00,VWS V14.01,2013-02-13 04:00:00,
2013-02-12 20:10:00,45.4,34.7,30.20,WSW,248,0.0,0.0,66,0.00,,---,0.00,VWS V14.01,2013-02-13 04:10:00,
2013-02-12 20:19:00,44.9,34.6,30.19,WSW,248,0.0,0.0,67,0.00,,---,0.00,VWS V14.01,2013-02-13 04:19:00,
2013-02-12 20:25:00,44.8,34.5,30.19,WSW,248,0.0,0.0,67,0.00,,---,0.00,VWS V14.01,2013-02-13 04:25:00,
2013-02-12 20:34:00,44.3,34.4,30.20,WSW,248,0.0,0.0,68,0.00,,---,0.00,VWS V14.01,2013-02-13 04:34:00,
2013-02-12 20:39:00,44.2,34.3,30.20,WSW,248,0.0,0.0,68,0.00,,---,0.00,VWS V14.01,2013-02-13 04:39:00,
2013-02-12 20:44:00,44.1,34.2,30.20,WSW,248,0.0,0.0,68,0.00,,---,0.00,VWS V14.01,2013-02-13 04:44:00,
2013-02-12 20:49:00,43.8,33.9,30.20,WSW,248,0.0,0.0,68,0.00,,---,0.00,VWS V14.01,2013-02-13 04:49:00,
2013-02-12 20:59:00,43.3,33.5,30.21,WSW,248,0.0,0.0,68,0.00,,---,0.00,VWS V14.01,2013-02-13 04:59:00,
2013-02-12 21:04:00,43.1,33.3,30.21,WSW,248,0.0,0.0,68,0.00,,---,0.00,VWS V14.01,2013-02-13 05:04:00,
2013-02-12 21:09:00,42.9,33.1,30.21,WSW,248,0.0,0.0,68,0.00,,---,0.00,VWS V14.01,2013-02-13 05:09:00,
2013-02-12 21:15:00,42.6,33.2,30.20,WSW,248,0.0,0.0,69,0.00,,---,0.00,VWS V14.01,2013-02-13 05:15:00,
2013-02-12 21:24:00,42.3,33.2,30.20,WSW,248,0.0,0.0,70,0.00,,---,0.00,VWS V14.01,2013-02-13 05:24:00,
2013-02-12 21:29:00,42.2,33.5,30.21,WSW,248,0.0,0.0,71,0.00,,---,0.00,VWS V14.01,2013-02-13 05:29:00,
2013-02-12 21:34:00,42.1,33.4,30.21,WSW,248,0.0,0.0,71,0.00,,---,0.00,VWS V14.01,2013-02-13 05:34:00,
2013-02-12 21:39:00,41.8,33.1,30.21,WSW,248,0.0,0.0,71,0.00,,---,0.00,VWS V14.01,2013-02-13 05:39:00,
2013-02-12 21:44:00,41.6,33.3,30.21,WSW,248,0.0,0.0,72,0.00,,---,0.00,VWS V14.01,2013-02-13 05:44:00,
2013-02-12 21:50:00,41.5,33.2,30.21,WSW,248,0.0,0.0,72,0.00,,---,0.00,VWS V14.01,2013-02-13 05:50:00,
2013-02-12 22:00:00,41.2,32.9,30.21,WSW,248,0.0,0.0,72,0.00,,---,0.00,VWS V14.01,2013-02-13 06:00:00,
2013-02-12 22:05:00,40.9,32.6,30.21,WSW,248,0.0,0.0,72,0.00,,---,0.00,VWS V14.01,2013-02-13 06:05:00,
2013-02-12 22:10:00,40.9,32.6,30.21,WSW,248,0.0,0.0,72,0.00,,---,0.00,VWS V14.01,2013-02-13 06:10:00,
2013-02-12 22:19:00,40.6,32.6,30.20,WSW,248,0.0,0.0,73,0.00,,---,0.00,VWS V14.01,2013-02-13 06:19:00,
2013-02-12 22:24:00,40.3,32.3,30.20,WSW,248,0.0,0.0,73,0.00,,---,0.00,VWS V14.01,2013-02-13 06:24:00,
2013-02-12 22:30:00,40.2,32.2,30.20,WSW,248,0.0,0.0,73,0.00,,---,0.00,VWS V14.01,2013-02-13 06:30:00,
2013-02-12 22:40:00,39.9,32.0,30.20,WSW,248,0.0,0.0,73,0.00,,---,0.00,VWS V14.01,2013-02-13 06:40:00,
2013-02-12 22:49:00,39.6,32.0,30.20,WSW,248,0.0,0.0,74,0.00,,---,0.00,VWS V14.01,2013-02-13 06:49:00,
2013-02-12 22:55:00,39.6,32.3,30.20,WSW,248,0.0,0.0,75,0.00,,---,0.00,VWS V14.01,2013-02-13 06:55:00,
2013-02-12 23:00:00,39.5,32.2,30.20,WSW,248,0.0,0.0,75,0.00,,---,0.00,VWS V14.01,2013-02-13 07:00:00,
2013-02-12 23:09:00,39.2,32.0,30.20,WSW,248,0.0,0.0,75,0.00,,---,0.00,VWS V14.01,2013-02-13 07:09:00,
2013-02-12 23:14:00,39.1,31.9,30.20,WSW,248,0.0,0.0,75,0.00,,---,0.00,VWS V14.01,2013-02-13 07:14:00,
2013-02-12 23:19:00,38.9,32.0,30.20,WSW,248,0.0,0.0,76,0.00,,---,0.00,VWS V14.01,2013-02-13 07:19:00,
2013-02-12 23:24:00,38.8,31.9,30.20,WSW,248,0.0,0.0,76,0.00,,---,0.00,VWS V14.01,2013-02-13 07:24:00,
2013-02-12 23:30:00,38.8,31.9,30.20,WSW,248,0.0,0.0,76,0.00,,---,0.00,VWS V14.01,2013-02-13 07:30:00,
2013-02-12 23:35:00,38.8,32.2,30.20,WSW,248,0.0,0.0,77,0.00,,---,0.00,VWS V14.01,2013-02-13 07:35:00,
2013-02-12 23:45:00,38.5,32.2,30.20,WSW,248,0.0,0.0,78,0.00,,---,0.00,VWS V14.01,2013-02-13 07:45:00,
2013-02-12 23:55:00,38.2,32.0,30.20,WSW,248,0.0,0.0,78,0.00,,---,0.00,VWS V14.01,2013-02-13 07:55:00,